TimeEDT,TemperatureF,Dew PointF,Humidity,Sea Level PressureIn,VisibilityMPH,Wind Direction,Wind SpeedMPH,Gust SpeedMPH,PrecipitationIn,Events,Conditions,WindDirDegrees,DateUTC
12:54 AM,75.0,71.1,87,30.20,10.0,West,3.5,-,N/A,,Clear,270,2013-07-18 04:54:00
1:54 AM,75.0,70.0,84,30.19,10.0,WNW,3.5,-,N/A,,Clear,290,2013-07-18 05:54:00
2:54 AM,73.9,70.0,87,30.18,10.0,Calm,Calm,-,N/A,,Clear,0,2013-07-18 06:54:00
3:54 AM,73.0,70.0,90,30.17,10.0,NW,3.5,-,N/A,,Clear,310,2013-07-18 07:54:00
4:54 AM,72.0,70.0,93,30.16,7.0,NW,4.6,-,N/A,,Clear,310,2013-07-18 08:54:00
5:54 AM,73.0,69.1,87,30.16,10.0,West,4.6,-,N/A,,Clear,270,2013-07-18 09:54:00
6:54 AM,72.0,70.0,93,30.17,7.0,West,3.5,-,N/A,,Clear,270,2013-07-18 10:54:00
7:54 AM,73.9,70.0,87,30.18,7.0,WNW,4.6,-,N/A,,Clear,300,2013-07-18 11:54:00
8:54 AM,79.0,71.1,77,30.19,10.0,West,3.5,-,N/A,,Clear,270,2013-07-18 12:54:00
9:54 AM,81.0,71.1,72,30.19,10.0,Calm,Calm,-,N/A,,Clear,0,2013-07-18 13:54:00
10:54 AM,82.9,72.0,69,30.19,10.0,Calm,Calm,-,N/A,,Mostly Cloudy,0,2013-07-18 14:54:00
11:54 AM,87.1,72.0,61,30.18,10.0,NNE,6.9,-,N/A,,Partly Cloudy,20,2013-07-18 15:54:00
12:54 PM,89.1,72.0,57,30.16,10.0,Calm,Calm,-,N/A,,Partly Cloudy,0,2013-07-18 16:54:00
1:54 PM,91.0,70.0,50,30.14,10.0,Calm,Calm,-,N/A,,Scattered Clouds,0,2013-07-18 17:54:00
2:54 PM,89.1,69.1,52,30.13,10.0,Calm,Calm,-,N/A,,Mostly Cloudy,0,2013-07-18 18:54:00
3:54 PM,90.0,70.0,52,30.10,10.0,East,3.5,-,N/A,,Mostly Cloudy,90,2013-07-18 19:54:00
4:54 PM,90.0,70.0,52,30.09,10.0,SE,5.8,-,N/A,,Scattered Clouds,140,2013-07-18 20:54:00
5:54 PM,88.0,71.1,57,30.08,10.0,ESE,5.8,-,N/A,,Partly Cloudy,120,2013-07-18 21:54:00
6:54 PM,87.1,72.0,61,30.07,10.0,ESE,5.8,-,N/A,,Partly Cloudy,120,2013-07-18 22:54:00
7:54 PM,86.0,72.0,63,30.08,10.0,SSE,3.5,-,N/A,,Partly Cloudy,150,2013-07-18 23:54:00
8:54 PM,86.0,71.1,61,30.08,10.0,Calm,Calm,-,N/A,,Clear,0,2013-07-19 00:54:00
9:54 PM,84.0,73.9,72,30.09,10.0,SE,3.5,-,N/A,,Clear,130,2013-07-19 01:54:00
10:54 PM,80.1,73.9,81,30.11,10.0,Calm,Calm,-,N/A,,Clear,0,2013-07-19 02:54:00
11:54 PM,79.0,75.0,88,30.11,8.0,Calm,Calm,-,N/A,,Clear,0,2013-07-19 03:54:00